Location: Ambrosina
(19.9365°S, 43.9833°W)
Time: 01:23:50
(UTC+00:00)

CZ-2D R/B - Pass Details

Date: 11 May 2021
Orbit: 521 x 537 km, 97.4° (Epoch: 20 June)

Event Time Altitude Azimuth Distance (km) Brightness Sun altitude
Exits shadow 21:58:09 - 183° (S) 1,908 6.0 -21.0°
Reaches altitude 10° 21:58:24 10° 184° (S) 1,810 5.9 -21.1°
Maximum altitude 22:02:09 46° 257° (WSW) 732 4.3 -22.0°
Drops below altitude 10° 22:05:52 10° 331° (NNW) 1,786 6.4 -22.8°
Sets 22:08:00 0° 337° (NNW) 2,667 7.3 -23.3°
